Terug naar catalogus

OV2-3

ActiefMilitairHEO
NORAD 13912·PAYLOAD·🇺🇸 United States

Gelanceerd Dec 21, 1965 vanaf Cape Canaveral Space Force Station

Loading…

Volgende Passages (komende 24 uur)

TLE

VersSource: Space-Track

Epoch: Sep 14, 2026, 07:56 UTC

1 13912U 65108V   26257.33088526  .00008506  00000-0  82148-3 0  9998
2 13912  26.6249 325.3816 5195050 347.2586   3.5284  5.33841905575462

Volg OV2-3 in realtime met AllMySat

Download on the App Store